World > North America > United States > Illinois

Idlewood, Illinois Regional Weather

Lat: 38.38N, Lon: 88.92W
Wx Zone: ILZ075Web Search

Ads allow us to feed your daily addiction for the world's greatest weather information. We're determined to offer quality sponsors, in the least annoying way possible.

Feedback


°F Click to change Idlewood hourly weather to Imperial units.Click to change Idlewood hourly weather to Metric units. °C
Idlewood Weather Map
UTC Time: 5/12/2021, 10:19
Your Time:

Idlewood, IL Regional Weather

Expires:202105121100;;992756
ASUS43 KLOT 121009
RWRIL 

ILLINOIS REGIONAL WEATHER ROUNDUP
NATIONAL WEATHER SERVICE CHICAGO/ROMEOVILLE IL
500 AM CDT WED MAY 12 2021

NOTE: "FAIR" INDICATES FEW OR NO CLOUDS BELOW 12,000 FEET WITH NO
SIGNIFICANT WEATHER AND/OR OBSTRUCTIONS TO VISIBILITY.

* THESE STATIONS ARE NOT UNDER NWS QUALITY CONTROL. THEY ALSO MAY NOT
  REPORT WEATHER SUCH AS PRECIPITATION OR FOG.


ILZ064>066-069>071-074>076-080>082-084>086-088>090-092>094-121100-
SOUTH-CENTRAL ILLINOIS
  
CITY           SKY/WX    TMP DP  RH WIND       PRES   REMARKS
CARBONDALE     PTCLDY    47  35  63 NE7       30.34R                  
CAIRO*         CLOUDY    51  36  57 E12G17    30.29R                  
EFFINGHAM*     PTCLDY    39  32  75 NE3       30.40R                  
MARION         PTCLDY    46  35  67 NE8       30.34S                  
MT. VERNON     CLEAR     44  33  65 NE8       30.36R                  
CENTRALIA*     PTCLDY    44  33  65 CALM      30.36R                  
SALEM*         PTCLDY    44  32  63 NE5       30.37R                  
$$


SKY/WX - Weather  TMP - Temperature  DP - Dew Point  RH - Relative Humidity
WIND - Wind Direction/Speed PRES - Barometric Pressure VSB - Visibility
WCI - Wind Chill Index E13G22 Wind - East Wind 13 mph/Gusts of 22 mph